Year,Month,Day,Hour,Minute,Value (Times are PST for temperature in C)
2013,05,04,00,00,14.80
2013,05,04,00,01,14.80
2013,05,04,00,02,14.80
2013,05,04,00,03,14.80
2013,05,04,00,04,14.80
2013,05,04,00,05,14.80
2013,05,04,00,06,14.80
2013,05,04,00,07,14.80
2013,05,04,00,08,14.80
2013,05,04,00,09,14.80
2013,05,04,00,10,14.80
2013,05,04,00,11,14.80
2013,05,04,00,12,14.80
2013,05,04,00,13,14.80
2013,05,04,00,14,14.80
2013,05,04,00,15,14.80
2013,05,04,00,16,14.80
2013,05,04,00,17,14.80
2013,05,04,00,18,14.80
2013,05,04,00,19,14.80
2013,05,04,00,20,14.80
2013,05,04,00,21,14.80
2013,05,04,00,22,14.70
2013,05,04,00,23,14.70
2013,05,04,00,24,14.70
2013,05,04,00,25,14.80
2013,05,04,00,26,14.80
2013,05,04,00,27,14.80
2013,05,04,00,28,14.80
2013,05,04,00,29,14.80
2013,05,04,00,30,14.80
2013,05,04,00,31,14.70
2013,05,04,00,32,14.70
2013,05,04,00,33,14.70
2013,05,04,00,34,14.60
2013,05,04,00,35,14.60
2013,05,04,00,36,14.60
2013,05,04,00,37,14.60
2013,05,04,00,38,14.60
2013,05,04,00,39,14.60
2013,05,04,00,40,14.60
2013,05,04,00,41,14.60
2013,05,04,00,42,14.60
2013,05,04,00,43,14.60
2013,05,04,00,44,14.60
2013,05,04,00,45,14.60
2013,05,04,00,46,14.60
2013,05,04,00,47,14.50
2013,05,04,00,48,14.50
2013,05,04,00,49,14.50
2013,05,04,00,50,14.50
2013,05,04,00,51,14.40
2013,05,04,00,52,14.40
2013,05,04,00,53,14.40
2013,05,04,00,54,14.40
2013,05,04,00,55,14.40
2013,05,04,00,56,14.40
2013,05,04,00,57,14.40
2013,05,04,00,58,14.40
2013,05,04,00,59,14.40
2013,05,04,01,00,14.40
2013,05,04,01,01,14.40
2013,05,04,01,02,14.40
2013,05,04,01,03,14.30
2013,05,04,01,04,14.30
2013,05,04,01,05,14.30
2013,05,04,01,06,14.20
2013,05,04,01,07,14.20
2013,05,04,01,08,14.20
2013,05,04,01,09,14.20
2013,05,04,01,10,14.20
2013,05,04,01,11,14.20
2013,05,04,01,12,14.20
2013,05,04,01,13,14.20
2013,05,04,01,14,14.20
2013,05,04,01,15,14.20
2013,05,04,01,16,14.20
2013,05,04,01,17,14.20
2013,05,04,01,18,14.20
2013,05,04,01,19,14.20
2013,05,04,01,20,14.20
2013,05,04,01,21,14.10
2013,05,04,01,22,14.10
2013,05,04,01,23,14.10
2013,05,04,01,24,14.10
2013,05,04,01,25,14.10
2013,05,04,01,26,14.10
2013,05,04,01,27,14.10
2013,05,04,01,28,14.10
2013,05,04,01,29,14.10
2013,05,04,01,30,14.10
2013,05,04,01,31,14.00
2013,05,04,01,32,14.10
2013,05,04,01,33,14.10
2013,05,04,01,34,14.10
2013,05,04,01,35,14.10
2013,05,04,01,36,14.10
2013,05,04,01,37,14.10
2013,05,04,01,38,14.10
2013,05,04,01,39,14.10
2013,05,04,01,40,14.10
2013,05,04,01,41,14.10
2013,05,04,01,42,14.10
2013,05,04,01,43,14.10
2013,05,04,01,44,14.00
2013,05,04,01,45,14.00
2013,05,04,01,46,14.00
2013,05,04,01,47,14.00
2013,05,04,01,48,14.00
2013,05,04,01,49,14.00
2013,05,04,01,50,14.00
2013,05,04,01,51,14.00
2013,05,04,01,52,14.00
2013,05,04,01,53,14.00
2013,05,04,01,54,13.90
2013,05,04,01,55,13.90
2013,05,04,01,56,13.90
2013,05,04,01,57,13.90
2013,05,04,01,58,13.90
2013,05,04,01,59,13.80
2013,05,04,02,00,13.80
2013,05,04,02,01,13.80
2013,05,04,02,02,13.80
2013,05,04,02,03,13.80
2013,05,04,02,04,13.80
2013,05,04,02,05,13.80
2013,05,04,02,06,13.80
2013,05,04,02,07,13.80
2013,05,04,02,08,13.90
2013,05,04,02,09,13.90
2013,05,04,02,10,13.90
2013,05,04,02,11,13.90
2013,05,04,02,12,13.90
2013,05,04,02,13,13.90
2013,05,04,02,14,13.90
2013,05,04,02,15,13.90
2013,05,04,02,16,13.90
2013,05,04,02,17,13.80
2013,05,04,02,18,13.80
2013,05,04,02,19,13.80
2013,05,04,02,20,13.80
2013,05,04,02,21,13.70
2013,05,04,02,22,13.70
2013,05,04,02,23,13.70
2013,05,04,02,24,13.70
2013,05,04,02,25,13.70
2013,05,04,02,26,13.70
2013,05,04,02,27,13.70
2013,05,04,02,28,13.60
2013,05,04,02,29,13.60
2013,05,04,02,30,13.60
2013,05,04,02,31,13.60
2013,05,04,02,32,13.60
2013,05,04,02,33,13.60
2013,05,04,02,34,13.60
2013,05,04,02,35,13.50
2013,05,04,02,36,13.50
2013,05,04,02,37,13.50
2013,05,04,02,38,13.50
2013,05,04,02,39,13.50
2013,05,04,02,40,13.50
2013,05,04,02,41,13.50
2013,05,04,02,42,13.50
2013,05,04,02,43,13.50
2013,05,04,02,44,13.50
2013,05,04,02,45,13.50
2013,05,04,02,46,13.50
2013,05,04,02,47,13.50
2013,05,04,02,48,13.50
2013,05,04,02,49,13.50
2013,05,04,02,50,13.50
2013,05,04,02,51,13.50
2013,05,04,02,52,13.50
2013,05,04,02,53,13.50
2013,05,04,02,54,13.50
2013,05,04,02,55,13.50
2013,05,04,02,56,13.50
2013,05,04,02,57,13.50
2013,05,04,02,58,13.40
2013,05,04,02,59,13.40
2013,05,04,03,00,13.40
2013,05,04,03,01,13.40
2013,05,04,03,02,13.40
2013,05,04,03,03,13.30
2013,05,04,03,04,13.30
2013,05,04,03,05,13.30
2013,05,04,03,06,13.30
2013,05,04,03,07,13.30
2013,05,04,03,08,13.30
2013,05,04,03,09,13.30
2013,05,04,03,10,13.30
2013,05,04,03,11,13.30
2013,05,04,03,12,13.30
2013,05,04,03,13,13.20
2013,05,04,03,14,13.20
2013,05,04,03,15,13.20
2013,05,04,03,16,13.20
2013,05,04,03,17,13.10
2013,05,04,03,18,13.10
2013,05,04,03,19,13.00
2013,05,04,03,20,13.00
2013,05,04,03,21,13.00
2013,05,04,03,22,13.00
2013,05,04,03,23,13.00
2013,05,04,03,24,13.00
2013,05,04,03,25,12.90
2013,05,04,03,26,12.90
2013,05,04,03,27,12.90
2013,05,04,03,28,12.80
2013,05,04,03,29,12.80
2013,05,04,03,30,12.80
2013,05,04,03,31,12.80
2013,05,04,03,32,12.80
2013,05,04,03,33,12.70
2013,05,04,03,34,12.70
2013,05,04,03,35,12.70
2013,05,04,03,36,12.70
2013,05,04,03,37,12.60
2013,05,04,03,38,12.60
2013,05,04,03,39,12.60
2013,05,04,03,40,12.60
2013,05,04,03,41,12.50
2013,05,04,03,42,12.50
2013,05,04,03,43,12.50
2013,05,04,03,44,12.50
2013,05,04,03,45,12.40
2013,05,04,03,46,12.40
2013,05,04,03,47,12.40
2013,05,04,03,48,12.30
2013,05,04,03,49,12.30
2013,05,04,03,50,12.30
2013,05,04,03,51,12.30
2013,05,04,03,52,12.30
2013,05,04,03,53,12.30
2013,05,04,03,54,12.20
2013,05,04,03,55,12.20
2013,05,04,03,56,12.20
2013,05,04,03,57,12.20
2013,05,04,03,58,12.10
2013,05,04,03,59,12.10
2013,05,04,04,00,12.10
2013,05,04,04,01,12.10
2013,05,04,04,02,12.10
2013,05,04,04,03,12.10
2013,05,04,04,04,12.20
2013,05,04,04,05,12.20
2013,05,04,04,06,12.20
2013,05,04,04,07,12.30
2013,05,04,04,08,12.20
2013,05,04,04,09,12.20
2013,05,04,04,10,12.30
2013,05,04,04,11,12.30
2013,05,04,04,12,12.30
2013,05,04,04,13,12.30
2013,05,04,04,14,12.20
2013,05,04,04,15,12.20
2013,05,04,04,16,12.20
2013,05,04,04,17,12.20
2013,05,04,04,18,12.10
2013,05,04,04,19,12.10
2013,05,04,04,20,12.10
2013,05,04,04,21,12.00
2013,05,04,04,22,12.00
2013,05,04,04,23,12.00
2013,05,04,04,24,11.90
2013,05,04,04,25,11.90
2013,05,04,04,26,11.90
2013,05,04,04,27,11.90
2013,05,04,04,28,11.90
2013,05,04,04,29,11.90
2013,05,04,04,30,11.80
2013,05,04,04,31,11.80
2013,05,04,04,32,11.80
2013,05,04,04,33,11.80
2013,05,04,04,34,11.80
2013,05,04,04,35,11.70
2013,05,04,04,36,11.70
2013,05,04,04,37,11.60
2013,05,04,04,38,11.60
2013,05,04,04,39,11.60
2013,05,04,04,40,11.60
2013,05,04,04,41,11.60
2013,05,04,04,42,11.60
2013,05,04,04,43,11.50
2013,05,04,04,44,11.50
2013,05,04,04,45,11.60
2013,05,04,04,46,11.60
2013,05,04,04,47,11.60
2013,05,04,04,48,11.60
2013,05,04,04,49,11.60
2013,05,04,04,50,11.60
2013,05,04,04,51,11.40
2013,05,04,04,52,11.40
2013,05,04,04,53,11.40
2013,05,04,04,54,11.40
2013,05,04,04,55,11.40
2013,05,04,04,56,11.40
2013,05,04,04,57,11.40
2013,05,04,04,58,11.40
2013,05,04,04,59,11.40
2013,05,04,05,00,11.40
2013,05,04,05,01,11.40
2013,05,04,05,02,11.40
2013,05,04,05,03,11.30
2013,05,04,05,04,11.30
2013,05,04,05,05,11.30
2013,05,04,05,06,11.30
2013,05,04,05,07,11.30
2013,05,04,05,08,11.30
2013,05,04,05,09,11.30
2013,05,04,05,10,11.20
2013,05,04,05,11,11.20
2013,05,04,05,12,11.20
2013,05,04,05,13,11.20
2013,05,04,05,14,11.20
2013,05,04,05,15,11.20
2013,05,04,05,16,11.10
2013,05,04,05,17,11.10
2013,05,04,05,18,11.10
2013,05,04,05,19,11.10
2013,05,04,05,20,11.10
2013,05,04,05,21,11.10
2013,05,04,05,22,11.10
2013,05,04,05,23,11.10
2013,05,04,05,24,11.10
2013,05,04,05,25,11.10
2013,05,04,05,26,11.10
2013,05,04,05,27,11.10
2013,05,04,05,28,11.10
2013,05,04,05,29,11.10
2013,05,04,05,30,11.10
2013,05,04,05,31,11.10
2013,05,04,05,32,11.10
2013,05,04,05,33,11.10
2013,05,04,05,34,11.10
2013,05,04,05,35,11.10
2013,05,04,05,36,11.00
2013,05,04,05,37,11.00
2013,05,04,05,38,11.10
2013,05,04,05,39,11.10
2013,05,04,05,40,11.10
2013,05,04,05,41,11.00
2013,05,04,05,42,10.90
2013,05,04,05,43,10.90
2013,05,04,05,44,10.90
2013,05,04,05,45,10.90
2013,05,04,05,46,10.90
2013,05,04,05,47,10.90
2013,05,04,05,48,10.90
2013,05,04,05,49,10.90
2013,05,04,05,50,10.90
2013,05,04,05,51,10.90
2013,05,04,05,52,10.90
2013,05,04,05,53,10.90
2013,05,04,05,54,11.00
2013,05,04,05,55,11.00
2013,05,04,05,56,11.00
2013,05,04,05,57,11.00
2013,05,04,05,58,10.90
2013,05,04,05,59,10.90
2013,05,04,06,00,10.90
2013,05,04,06,01,10.90
2013,05,04,06,02,10.90
2013,05,04,06,03,10.90
2013,05,04,06,04,10.90
2013,05,04,06,05,10.90
2013,05,04,06,06,10.90
2013,05,04,06,07,10.90
2013,05,04,06,08,10.90
2013,05,04,06,09,10.90
2013,05,04,06,10,10.90
2013,05,04,06,11,10.90
2013,05,04,06,12,10.90
2013,05,04,06,13,10.90
2013,05,04,06,14,10.90
2013,05,04,06,15,10.90
2013,05,04,06,16,10.90
2013,05,04,06,17,10.90
2013,05,04,06,18,10.90
2013,05,04,06,19,10.90
2013,05,04,06,20,10.90
2013,05,04,06,21,10.90
2013,05,04,06,22,10.90
2013,05,04,06,23,10.90
2013,05,04,06,24,10.90
2013,05,04,06,25,10.90
2013,05,04,06,26,10.90
2013,05,04,06,27,10.90
2013,05,04,06,28,10.90
2013,05,04,06,29,10.90
2013,05,04,06,30,10.90
2013,05,04,06,31,10.90
2013,05,04,06,32,10.90
2013,05,04,06,33,11.00
2013,05,04,06,34,11.10
2013,05,04,06,35,11.10
2013,05,04,06,36,11.10
2013,05,04,06,37,11.20
2013,05,04,06,38,11.20
2013,05,04,06,39,11.20
2013,05,04,06,40,11.20
2013,05,04,06,41,11.30
2013,05,04,06,42,11.30
2013,05,04,06,43,11.30
2013,05,04,06,44,11.40
2013,05,04,06,45,11.40
2013,05,04,06,46,11.40
2013,05,04,06,47,11.40
2013,05,04,06,48,11.50
2013,05,04,06,49,11.60
2013,05,04,06,50,11.60
2013,05,04,06,51,11.60
2013,05,04,06,52,11.60
2013,05,04,06,53,11.60
2013,05,04,06,54,11.70
2013,05,04,06,55,11.70
2013,05,04,06,56,11.70
2013,05,04,06,57,11.80
2013,05,04,06,58,11.80
2013,05,04,06,59,11.80
2013,05,04,07,00,11.80
2013,05,04,07,01,11.80
2013,05,04,07,02,11.80
2013,05,04,07,03,11.80
2013,05,04,07,04,11.80
2013,05,04,07,05,11.80
2013,05,04,07,06,11.80
2013,05,04,07,07,11.90
2013,05,04,07,08,11.90
2013,05,04,07,09,11.90
2013,05,04,07,10,11.90
2013,05,04,07,11,11.90
2013,05,04,07,12,11.90
2013,05,04,07,13,12.00
2013,05,04,07,14,12.00
2013,05,04,07,15,12.00
2013,05,04,07,16,12.00
2013,05,04,07,17,12.10
2013,05,04,07,18,12.10
2013,05,04,07,19,12.10
2013,05,04,07,20,12.20
2013,05,04,07,21,12.20
2013,05,04,07,22,12.20
2013,05,04,07,23,12.30
2013,05,04,07,24,12.30
2013,05,04,07,25,12.30
2013,05,04,07,26,12.30
2013,05,04,07,27,12.30
2013,05,04,07,28,12.40
2013,05,04,07,29,12.40
2013,05,04,07,30,12.50
2013,05,04,07,31,12.50
2013,05,04,07,32,12.50
2013,05,04,07,33,12.50
2013,05,04,07,34,12.60
2013,05,04,07,35,12.60
2013,05,04,07,36,12.60
2013,05,04,07,37,12.70
2013,05,04,07,38,12.70
2013,05,04,07,39,12.80
2013,05,04,07,40,12.80
2013,05,04,07,41,12.80
2013,05,04,07,42,12.80
2013,05,04,07,43,12.90
2013,05,04,07,44,12.90
2013,05,04,07,45,13.00
2013,05,04,07,46,13.00
2013,05,04,07,47,13.00
2013,05,04,07,48,13.10
2013,05,04,07,49,13.10
2013,05,04,07,50,13.10
2013,05,04,07,51,13.10
2013,05,04,07,52,13.20
2013,05,04,07,53,13.20
2013,05,04,07,54,13.20
2013,05,04,07,55,13.10
2013,05,04,07,56,13.10
2013,05,04,07,57,13.10
2013,05,04,07,58,13.10
2013,05,04,07,59,13.20
2013,05,04,08,00,13.20
2013,05,04,08,01,13.20
2013,05,04,08,02,13.20
2013,05,04,08,03,13.20
2013,05,04,08,04,13.10
2013,05,04,08,05,13.10
2013,05,04,08,06,13.20
2013,05,04,08,07,13.20
2013,05,04,08,08,13.20
2013,05,04,08,09,13.20
2013,05,04,08,10,13.20
2013,05,04,08,11,13.20
2013,05,04,08,12,13.20
2013,05,04,08,13,13.20
2013,05,04,08,14,13.20
2013,05,04,08,15,13.20
2013,05,04,08,16,13.30
2013,05,04,08,17,13.30
2013,05,04,08,18,13.30
2013,05,04,08,19,13.30
2013,05,04,08,20,13.30
2013,05,04,08,21,13.30
2013,05,04,08,22,13.30
2013,05,04,08,23,13.30
2013,05,04,08,24,13.40
2013,05,04,08,25,13.40
2013,05,04,08,26,13.40
2013,05,04,08,27,13.50
2013,05,04,08,28,13.50
2013,05,04,08,29,13.60
2013,05,04,08,30,13.60
2013,05,04,08,31,13.60
2013,05,04,08,32,13.70
2013,05,04,08,33,13.70
2013,05,04,08,34,13.70
2013,05,04,08,35,13.80
2013,05,04,08,36,13.80
2013,05,04,08,37,13.90
2013,05,04,08,38,13.90
2013,05,04,08,39,14.00
2013,05,04,08,40,14.00
2013,05,04,08,41,14.00
2013,05,04,08,42,14.10
2013,05,04,08,43,14.20
2013,05,04,08,44,14.20
2013,05,04,08,45,14.20
2013,05,04,08,46,14.20
2013,05,04,08,47,14.30
2013,05,04,08,48,14.40
2013,05,04,08,49,14.40
2013,05,04,08,50,14.50
2013,05,04,08,51,14.50
2013,05,04,08,52,14.60
2013,05,04,08,53,14.60
2013,05,04,08,54,14.60
2013,05,04,08,55,14.60
2013,05,04,08,56,14.60
2013,05,04,08,57,14.60
2013,05,04,08,58,14.60
2013,05,04,08,59,14.50
2013,05,04,09,00,14.50
2013,05,04,09,01,14.40
2013,05,04,09,02,14.40
2013,05,04,09,03,14.40
2013,05,04,09,04,14.40
2013,05,04,09,05,14.40
2013,05,04,09,06,14.40
2013,05,04,09,07,14.40
2013,05,04,09,08,14.40
2013,05,04,09,09,14.40
2013,05,04,09,10,14.50
2013,05,04,09,11,14.60
2013,05,04,09,12,14.70
2013,05,04,09,13,14.70
2013,05,04,09,14,14.80
2013,05,04,09,15,14.80
2013,05,04,09,16,14.80
2013,05,04,09,17,14.80
2013,05,04,09,18,14.80
2013,05,04,09,19,14.80
2013,05,04,09,20,14.80
2013,05,04,09,21,14.70
2013,05,04,09,22,14.70
2013,05,04,09,23,14.60
2013,05,04,09,24,14.60
2013,05,04,09,25,14.60
2013,05,04,09,26,14.60
2013,05,04,09,27,14.60
2013,05,04,09,28,14.70
2013,05,04,09,29,14.70
2013,05,04,09,30,14.70
2013,05,04,09,31,14.60
2013,05,04,09,32,14.70
2013,05,04,09,33,14.70
2013,05,04,09,34,14.70
2013,05,04,09,35,14.70
2013,05,04,09,36,14.70
2013,05,04,09,37,14.70
2013,05,04,09,38,14.70
2013,05,04,09,39,14.70
2013,05,04,09,40,14.80
2013,05,04,09,41,14.80
2013,05,04,09,42,14.90
2013,05,04,09,43,14.90
2013,05,04,09,44,15.00
2013,05,04,09,45,15.00
2013,05,04,09,46,15.10
2013,05,04,09,47,15.10
2013,05,04,09,48,15.20
2013,05,04,09,49,15.20
2013,05,04,09,50,15.20
2013,05,04,09,51,15.20
2013,05,04,09,52,15.20
2013,05,04,09,53,15.20
2013,05,04,09,54,15.10
2013,05,04,09,55,15.10
2013,05,04,09,56,15.20
2013,05,04,09,57,15.20
2013,05,04,09,58,15.30
2013,05,04,09,59,15.30
2013,05,04,10,00,15.30
2013,05,04,10,01,15.40
2013,05,04,10,02,15.50
2013,05,04,10,03,15.50
2013,05,04,10,04,15.50
2013,05,04,10,05,15.50
2013,05,04,10,06,15.50
2013,05,04,10,07,15.50
2013,05,04,10,08,15.60
2013,05,04,10,09,15.60
2013,05,04,10,10,15.70
2013,05,04,10,11,15.80
2013,05,04,10,12,15.90
2013,05,04,10,13,16.00
2013,05,04,10,14,16.10
2013,05,04,10,15,16.10
2013,05,04,10,16,16.10
2013,05,04,10,17,16.10
2013,05,04,10,18,16.10
2013,05,04,10,19,16.20
2013,05,04,10,20,16.20
2013,05,04,10,21,16.30
2013,05,04,10,22,16.30
2013,05,04,10,23,16.30
2013,05,04,10,24,16.30
2013,05,04,10,25,16.20
2013,05,04,10,26,16.30
2013,05,04,10,27,16.30
2013,05,04,10,28,16.30
2013,05,04,10,29,16.40
2013,05,04,10,30,16.40
2013,05,04,10,31,16.50
2013,05,04,10,32,16.60
2013,05,04,10,33,16.60
2013,05,04,10,34,16.70
2013,05,04,10,35,16.70
2013,05,04,10,36,16.80
2013,05,04,10,37,16.90
2013,05,04,10,38,16.90
2013,05,04,10,39,16.90
2013,05,04,10,40,16.90
2013,05,04,10,41,16.90
2013,05,04,10,42,16.90
2013,05,04,10,43,17.00
2013,05,04,10,44,17.00
2013,05,04,10,45,17.00
2013,05,04,10,46,16.80
2013,05,04,10,47,16.70
2013,05,04,10,48,16.70
2013,05,04,10,49,16.70
2013,05,04,10,50,16.70
2013,05,04,10,51,16.60
2013,05,04,10,52,16.50
2013,05,04,10,53,16.60
2013,05,04,10,54,16.60
2013,05,04,10,55,16.60
2013,05,04,10,56,16.60
2013,05,04,10,57,16.60
2013,05,04,10,58,16.50
2013,05,04,10,59,16.40
2013,05,04,11,00,16.40
2013,05,04,11,01,16.40
2013,05,04,11,02,16.40
2013,05,04,11,03,16.40
2013,05,04,11,04,16.40
2013,05,04,11,05,16.40
2013,05,04,11,06,16.40
2013,05,04,11,07,16.30
2013,05,04,11,08,16.30
2013,05,04,11,09,16.20
2013,05,04,11,10,16.20
2013,05,04,11,11,16.10
2013,05,04,11,12,16.00
2013,05,04,11,13,15.80
2013,05,04,11,14,15.50
2013,05,04,11,15,15.40
2013,05,04,11,16,15.40
2013,05,04,11,17,15.40
2013,05,04,11,18,15.30
2013,05,04,11,19,15.30
2013,05,04,11,20,15.20
2013,05,04,11,21,15.10
2013,05,04,11,22,15.10
2013,05,04,11,23,15.20
2013,05,04,11,24,15.10
2013,05,04,11,25,15.20
2013,05,04,11,26,15.30
2013,05,04,11,27,15.30
2013,05,04,11,28,15.30
2013,05,04,11,29,15.40
2013,05,04,11,30,15.50
2013,05,04,11,31,15.70
2013,05,04,11,32,15.90
2013,05,04,11,33,16.10
2013,05,04,11,34,16.20
2013,05,04,11,35,16.30
2013,05,04,11,36,16.50
2013,05,04,11,37,16.60
2013,05,04,11,38,16.70
2013,05,04,11,39,16.70
2013,05,04,11,40,16.80
2013,05,04,11,41,16.90
2013,05,04,11,42,16.90
2013,05,04,11,43,16.90
2013,05,04,11,44,17.00
2013,05,04,11,45,17.00
2013,05,04,11,46,17.00
2013,05,04,11,47,17.00
2013,05,04,11,48,17.00
2013,05,04,11,49,17.00
2013,05,04,11,50,17.00
2013,05,04,11,51,17.00
2013,05,04,11,52,17.00
2013,05,04,11,53,17.00
2013,05,04,11,54,17.00
2013,05,04,11,55,17.00
2013,05,04,11,56,17.00
2013,05,04,11,57,17.20
2013,05,04,11,58,17.30
2013,05,04,11,59,17.30
2013,05,04,12,00,17.40
2013,05,04,12,01,17.50
2013,05,04,12,02,17.60
2013,05,04,12,03,17.60
2013,05,04,12,04,17.50
2013,05,04,12,05,17.40
2013,05,04,12,06,17.50
2013,05,04,12,07,17.50
2013,05,04,12,08,17.60
2013,05,04,12,09,17.70
2013,05,04,12,10,17.80
2013,05,04,12,11,17.90
2013,05,04,12,12,18.00
2013,05,04,12,13,18.00
2013,05,04,12,14,17.90
2013,05,04,12,15,17.90
2013,05,04,12,16,17.90
2013,05,04,12,17,17.90
2013,05,04,12,18,17.90
2013,05,04,12,19,18.00
2013,05,04,12,20,18.10
2013,05,04,12,21,18.20
2013,05,04,12,22,18.40
2013,05,04,12,23,18.50
2013,05,04,12,24,18.60
2013,05,04,12,25,18.60
2013,05,04,12,26,18.70
2013,05,04,12,27,18.80
2013,05,04,12,28,18.90
2013,05,04,12,29,18.90
2013,05,04,12,30,19.00
2013,05,04,12,31,19.10
2013,05,04,12,32,19.10
2013,05,04,12,33,19.10
2013,05,04,12,34,18.90
2013,05,04,12,35,18.90
2013,05,04,12,36,18.90
2013,05,04,12,37,18.90
2013,05,04,12,38,18.90
2013,05,04,12,39,18.90
2013,05,04,12,40,18.90
2013,05,04,12,41,19.00
2013,05,04,12,42,19.10
2013,05,04,12,43,19.10
2013,05,04,12,44,19.10
2013,05,04,12,45,19.20
2013,05,04,12,46,19.30
2013,05,04,12,47,19.40
2013,05,04,12,48,19.50
2013,05,04,12,49,19.60
2013,05,04,12,50,19.60
2013,05,04,12,51,19.60
2013,05,04,12,52,19.60
2013,05,04,12,53,19.60
2013,05,04,12,54,19.60
2013,05,04,12,55,19.60
2013,05,04,12,56,19.60
2013,05,04,12,57,19.60
2013,05,04,12,58,19.60
2013,05,04,12,59,19.60
2013,05,04,13,00,19.60
2013,05,04,13,01,19.70
2013,05,04,13,02,19.80
2013,05,04,13,03,19.90
2013,05,04,13,04,19.80
2013,05,04,13,05,19.80
2013,05,04,13,06,19.70
2013,05,04,13,07,19.60
2013,05,04,13,08,19.60
2013,05,04,13,09,19.60
2013,05,04,13,10,19.60
2013,05,04,13,11,19.60
2013,05,04,13,12,19.70
2013,05,04,13,13,19.70
2013,05,04,13,14,19.70
2013,05,04,13,15,19.60
2013,05,04,13,16,19.50
2013,05,04,13,17,19.30
2013,05,04,13,18,19.20
2013,05,04,13,19,19.10
2013,05,04,13,20,19.10
2013,05,04,13,21,19.10
2013,05,04,13,22,19.10
2013,05,04,13,23,19.10
2013,05,04,13,24,19.10
2013,05,04,13,25,19.10
2013,05,04,13,26,19.20
2013,05,04,13,27,19.40
2013,05,04,13,28,19.50
2013,05,04,13,29,19.60
2013,05,04,13,30,19.70
2013,05,04,13,31,19.80
2013,05,04,13,32,19.90
2013,05,04,13,33,19.90
2013,05,04,13,34,20.00
2013,05,04,13,35,20.10
2013,05,04,13,36,20.20
2013,05,04,13,37,20.30
2013,05,04,13,38,20.30
2013,05,04,13,39,20.40
2013,05,04,13,40,20.40
2013,05,04,13,41,20.40
2013,05,04,13,42,20.30
2013,05,04,13,43,20.30
2013,05,04,13,44,20.40
2013,05,04,13,45,20.40
2013,05,04,13,46,20.40
2013,05,04,13,47,20.40
2013,05,04,13,48,20.30
2013,05,04,13,49,20.30
2013,05,04,13,50,20.30
2013,05,04,13,51,20.40
2013,05,04,13,52,20.30
2013,05,04,13,53,20.20
2013,05,04,13,54,20.10
2013,05,04,13,55,20.10
2013,05,04,13,56,20.10
2013,05,04,13,57,20.00
2013,05,04,13,58,19.90
2013,05,04,13,59,19.90
2013,05,04,14,00,19.90
2013,05,04,14,01,20.00
2013,05,04,14,02,20.10
2013,05,04,14,03,20.10
2013,05,04,14,04,20.20
2013,05,04,14,05,20.20
2013,05,04,14,06,20.20
2013,05,04,14,07,20.20
2013,05,04,14,08,20.20
2013,05,04,14,09,20.20
2013,05,04,14,10,20.20
2013,05,04,14,11,20.20
2013,05,04,14,12,20.40
2013,05,04,14,13,20.60
2013,05,04,14,14,20.70
2013,05,04,14,15,20.80
2013,05,04,14,16,20.90
2013,05,04,14,17,21.00
2013,05,04,14,18,21.00
2013,05,04,14,19,20.90
2013,05,04,14,20,20.90
2013,05,04,14,21,20.80
2013,05,04,14,22,20.70
2013,05,04,14,23,20.60
2013,05,04,14,24,20.60
2013,05,04,14,25,20.60
2013,05,04,14,26,20.60
2013,05,04,14,27,20.50
2013,05,04,14,28,20.40
2013,05,04,14,29,20.40
2013,05,04,14,30,20.30
2013,05,04,14,31,20.30
2013,05,04,14,32,20.30
2013,05,04,14,33,20.40
2013,05,04,14,34,20.40
2013,05,04,14,35,20.50
2013,05,04,14,36,20.60
2013,05,04,14,37,20.70
2013,05,04,14,38,20.80
2013,05,04,14,39,20.90
2013,05,04,14,40,21.00
2013,05,04,14,41,21.10
2013,05,04,14,42,21.20
2013,05,04,14,43,21.30
2013,05,04,14,44,21.30
2013,05,04,14,45,21.20
2013,05,04,14,46,21.20
2013,05,04,14,47,21.30
2013,05,04,14,48,21.20
2013,05,04,14,49,21.20
2013,05,04,14,50,21.30
2013,05,04,14,51,21.30
2013,05,04,14,52,21.20
2013,05,04,14,53,21.10
2013,05,04,14,54,21.00
2013,05,04,14,55,21.00
2013,05,04,14,56,21.00
2013,05,04,14,57,21.00
2013,05,04,14,58,20.90
2013,05,04,14,59,20.80
2013,05,04,15,00,20.70
2013,05,04,15,01,20.60
2013,05,04,15,02,20.60
2013,05,04,15,03,20.60
2013,05,04,15,04,20.60
2013,05,04,15,05,20.60
2013,05,04,15,06,20.70
2013,05,04,15,07,20.80
2013,05,04,15,08,20.80
2013,05,04,15,09,20.80
2013,05,04,15,10,20.80
2013,05,04,15,11,20.90
2013,05,04,15,12,20.90
2013,05,04,15,13,21.00
2013,05,04,15,14,21.10
2013,05,04,15,15,21.20
2013,05,04,15,16,21.30
2013,05,04,15,17,21.30
2013,05,04,15,18,21.30
2013,05,04,15,19,21.30
2013,05,04,15,20,21.30
2013,05,04,15,21,21.30
2013,05,04,15,22,21.30
2013,05,04,15,23,21.30
2013,05,04,15,24,21.30
2013,05,04,15,25,21.30
2013,05,04,15,26,21.30
2013,05,04,15,27,21.30
2013,05,04,15,28,21.30
2013,05,04,15,29,21.40
2013,05,04,15,30,21.40
2013,05,04,15,31,21.30
2013,05,04,15,32,21.40
2013,05,04,15,33,21.40
2013,05,04,15,34,21.40
2013,05,04,15,35,21.50
2013,05,04,15,36,21.60
2013,05,04,15,37,21.60
2013,05,04,15,38,21.60
2013,05,04,15,39,21.50
2013,05,04,15,40,21.30
2013,05,04,15,41,21.20
2013,05,04,15,42,21.20
2013,05,04,15,43,21.20
2013,05,04,15,44,21.20
2013,05,04,15,45,21.30
2013,05,04,15,46,21.30
2013,05,04,15,47,21.30
2013,05,04,15,48,21.30
2013,05,04,15,49,21.30
2013,05,04,15,50,21.40
2013,05,04,15,51,21.60
2013,05,04,15,52,21.60
2013,05,04,15,53,21.60
2013,05,04,15,54,21.60
2013,05,04,15,55,21.60
2013,05,04,15,56,21.70
2013,05,04,15,57,21.70
2013,05,04,15,58,21.70
2013,05,04,15,59,21.70
2013,05,04,16,00,21.80
2013,05,04,16,01,21.80
2013,05,04,16,02,21.80
2013,05,04,16,03,21.90
2013,05,04,16,04,21.90
2013,05,04,16,05,22.00
2013,05,04,16,06,22.00
2013,05,04,16,07,22.10
2013,05,04,16,08,22.20
2013,05,04,16,09,22.20
2013,05,04,16,10,22.20
2013,05,04,16,11,22.30
2013,05,04,16,12,22.30
2013,05,04,16,13,22.40
2013,05,04,16,14,22.40
2013,05,04,16,15,22.50
2013,05,04,16,16,22.50
2013,05,04,16,17,22.60
2013,05,04,16,18,22.60
2013,05,04,16,19,22.60
2013,05,04,16,20,22.60
2013,05,04,16,21,22.70
2013,05,04,16,22,22.70
2013,05,04,16,23,22.70
2013,05,04,16,24,22.60
2013,05,04,16,25,22.60
2013,05,04,16,26,22.60
2013,05,04,16,27,22.60
2013,05,04,16,28,22.70
2013,05,04,16,29,22.80
2013,05,04,16,30,22.90
2013,05,04,16,31,22.90
2013,05,04,16,32,22.90
2013,05,04,16,33,23.00
2013,05,04,16,34,23.10
2013,05,04,16,35,23.00
2013,05,04,16,36,22.90
2013,05,04,16,37,22.90
2013,05,04,16,38,22.90
2013,05,04,16,39,23.00
2013,05,04,16,40,23.10
2013,05,04,16,41,23.10
2013,05,04,16,42,23.10
2013,05,04,16,43,23.10
2013,05,04,16,44,22.90
2013,05,04,16,45,22.90
2013,05,04,16,46,22.90
2013,05,04,16,47,22.90
2013,05,04,16,48,22.90
2013,05,04,16,49,22.90
2013,05,04,16,50,22.80
2013,05,04,16,51,22.80
2013,05,04,16,52,22.80
2013,05,04,16,53,22.80
2013,05,04,16,54,22.90
2013,05,04,16,55,22.90
2013,05,04,16,56,23.00
2013,05,04,16,57,23.10
2013,05,04,16,58,23.20
2013,05,04,16,59,23.20
2013,05,04,17,00,23.30
2013,05,04,17,01,23.30
2013,05,04,17,02,23.30
2013,05,04,17,03,23.30
2013,05,04,17,04,23.40
2013,05,04,17,05,23.50
2013,05,04,17,06,23.60
2013,05,04,17,07,23.60
2013,05,04,17,08,23.70
2013,05,04,17,09,23.70
2013,05,04,17,10,23.70
2013,05,04,17,11,23.60
2013,05,04,17,12,23.60
2013,05,04,17,13,23.50
2013,05,04,17,14,23.40
2013,05,04,17,15,23.40
2013,05,04,17,16,23.40
2013,05,04,17,17,23.30
2013,05,04,17,18,23.30
2013,05,04,17,19,23.30